Time,TemperatureF,DewpointF,PressureIn,WindDirection,WindDirectionDegrees,WindSpeedMPH,WindSpeedGustMPH,Humidity,HourlyPrecipIn,Conditions,Clouds,dailyrainin,SoftwareType,DateUTC
2013-12-10 00:01:00,36.2,34.7,0.00,WSW,249,0.0,197.8,94,4.16,,,0.10,VWS V14.01,2013-12-10 05:01:00,
2013-12-10 00:03:00,36.1,34.7,0.00,North,349,0.0,197.8,95,4.16,,,0.00,VWS V14.01,2013-12-10 05:03:00,
2013-12-10 00:04:00,36.3,34.9,0.00,North,349,0.0,197.8,95,4.16,,,0.00,VWS V14.01,2013-12-10 05:04:00,
2013-12-10 00:06:00,36.2,34.8,0.00,NW,323,4.4,197.8,95,4.16,,,0.00,VWS V14.01,2013-12-10 05:06:00,
2013-12-10 00:10:00,36.2,34.6,0.00,WNW,297,0.0,197.8,94,4.16,,,0.00,VWS V14.01,2013-12-10 05:10:00,
2013-12-10 00:11:00,36.1,34.6,0.00,WNW,297,0.0,197.8,94,4.16,,,0.00,VWS V14.01,2013-12-10 05:11:00,
2013-12-10 00:16:00,36.2,34.8,0.00,WNW,297,0.0,197.8,94,4.16,,,0.00,VWS V14.01,2013-12-10 05:16:00,
2013-12-10 00:22:00,36.2,34.8,0.00,WSW,252,0.0,197.8,94,4.16,,,0.00,VWS V14.01,2013-12-10 05:22:00,
2013-12-10 00:29:00,36.2,34.8,0.00,WSW,252,0.0,197.8,94,4.16,,,0.00,VWS V14.01,2013-12-10 05:29:00,
2013-12-10 00:34:00,36.1,34.8,0.00,West,259,0.0,197.8,95,4.16,,,0.00,VWS V14.01,2013-12-10 05:34:00,
2013-12-10 00:40:00,36.2,34.6,0.00,SW,228,0.0,197.8,94,4.16,,,0.00,VWS V14.01,2013-12-10 05:40:00,
2013-12-10 00:45:00,36.0,34.6,0.00,SW,228,0.0,197.8,95,4.16,,,0.00,VWS V14.01,2013-12-10 05:45:00,
2013-12-10 00:50:00,36.2,34.5,0.00,SW,228,0.0,197.8,93,4.16,,,0.00,VWS V14.01,2013-12-10 05:50:00,
2013-12-10 00:56:00,36.1,34.4,0.00,SW,228,0.0,197.8,93,4.16,,,0.00,VWS V14.01,2013-12-10 05:56:00,
2013-12-10 01:01:00,36.1,34.3,0.00,SW,228,0.0,197.8,93,4.16,,,0.00,VWS V14.01,2013-12-10 06:01:00,
2013-12-10 01:07:00,36.0,34.3,0.00,SW,228,0.0,197.8,94,4.16,,,0.00,VWS V14.01,2013-12-10 06:07:00,
2013-12-10 01:13:00,35.8,34.2,0.00,WNW,298,0.0,197.8,94,4.16,,,0.00,VWS V14.01,2013-12-10 06:13:00,
2013-12-10 01:19:00,35.5,33.9,0.00,West,259,0.0,197.8,94,4.16,,,0.00,VWS V14.01,2013-12-10 06:19:00,
2013-12-10 01:24:00,35.7,34.0,0.00,WNW,295,0.0,197.8,94,4.16,,,0.00,VWS V14.01,2013-12-10 06:24:00,
2013-12-10 01:30:00,35.5,34.0,0.00,West,281,0.0,197.8,94,4.16,,,0.00,VWS V14.01,2013-12-10 06:30:00,
2013-12-10 01:35:00,35.4,33.7,0.00,WNW,285,0.0,197.8,94,4.16,,,0.00,VWS V14.01,2013-12-10 06:35:00,
2013-12-10 01:40:00,35.4,33.7,0.00,WNW,288,9.3,197.8,93,4.16,,,0.00,VWS V14.01,2013-12-10 06:40:00,
2013-12-10 01:45:00,35.6,33.9,0.00,NW,315,0.0,197.8,93,4.16,,,0.00,VWS V14.01,2013-12-10 06:45:00,
2013-12-10 01:51:00,35.6,33.9,0.00,WNW,288,4.8,197.8,93,4.16,,,0.00,VWS V14.01,2013-12-10 06:51:00,
2013-12-10 01:56:00,35.3,33.7,0.00,WNW,288,0.0,197.8,94,4.16,,,0.00,VWS V14.01,2013-12-10 06:56:00,
2013-12-10 02:01:00,35.4,33.8,0.00,West,274,3.0,197.8,94,4.16,,,0.00,VWS V14.01,2013-12-10 07:01:00,
2013-12-10 02:06:00,35.2,33.5,0.00,West,271,3.1,197.8,94,4.16,,,0.00,VWS V14.01,2013-12-10 07:06:00,
2013-12-10 02:11:00,35.3,33.7,0.00,West,259,2.9,197.8,94,4.16,,,0.00,VWS V14.01,2013-12-10 07:11:00,
2013-12-10 02:17:00,35.4,33.7,0.00,WNW,288,3.3,197.8,93,4.16,,,0.00,VWS V14.01,2013-12-10 07:17:00,
2013-12-10 02:22:00,35.5,33.8,0.00,West,276,0.0,197.8,93,4.16,,,0.00,VWS V14.01,2013-12-10 07:22:00,
2013-12-10 02:27:00,35.6,33.9,0.00,West,277,1.1,197.8,94,4.16,,,0.00,VWS V14.01,2013-12-10 07:27:00,
2013-12-10 02:32:00,35.7,34.1,0.00,WNW,292,2.9,197.8,94,4.16,,,0.00,VWS V14.01,2013-12-10 07:32:00,
2013-12-10 02:37:00,35.7,33.9,0.00,NNW,339,0.0,197.8,93,4.16,,,0.00,VWS V14.01,2013-12-10 07:37:00,
2013-12-10 02:43:00,35.6,33.8,0.00,SSW,210,0.0,197.8,93,4.16,,,0.00,VWS V14.01,2013-12-10 07:43:00,
2013-12-10 02:48:00,35.7,33.9,0.00,WNW,290,3.4,197.8,93,4.16,,,0.00,VWS V14.01,2013-12-10 07:48:00,
2013-12-10 02:53:00,35.6,33.8,0.00,West,276,0.0,197.8,93,4.16,,,0.00,VWS V14.01,2013-12-10 07:53:00,
2013-12-10 02:58:00,35.6,33.7,0.00,WNW,283,0.0,197.8,93,4.16,,,0.00,VWS V14.01,2013-12-10 07:58:00,
2013-12-10 03:03:00,35.5,33.7,0.00,WSW,246,0.0,197.8,93,4.16,,,0.00,VWS V14.01,2013-12-10 08:03:00,
2013-12-10 03:09:00,35.4,33.9,0.00,NNW,338,0.0,197.8,94,4.16,,,0.00,VWS V14.01,2013-12-10 08:09:00,
2013-12-10 03:14:00,35.4,33.6,0.00,WNW,297,5.2,197.8,93,4.16,,,0.00,VWS V14.01,2013-12-10 08:14:00,
2013-12-10 03:19:00,35.5,33.6,0.00,WNW,285,6.9,197.8,93,4.16,,,0.00,VWS V14.01,2013-12-10 08:19:00,
2013-12-10 03:24:00,35.4,33.7,0.00,NW,308,3.5,197.8,94,4.16,,,0.00,VWS V14.01,2013-12-10 08:24:00,
2013-12-10 03:29:00,35.4,33.6,0.00,NW,315,3.4,197.8,93,4.16,,,0.00,VWS V14.01,2013-12-10 08:29:00,
2013-12-10 03:35:00,35.5,33.6,0.00,West,263,4.5,197.8,93,4.16,,,0.00,VWS V14.01,2013-12-10 08:35:00,
2013-12-10 03:40:00,35.4,33.5,0.00,WNW,290,2.6,197.8,93,4.16,,,0.00,VWS V14.01,2013-12-10 08:40:00,
2013-12-10 03:45:00,35.4,33.5,0.00,NW,318,4.5,197.8,93,4.16,,,0.00,VWS V14.01,2013-12-10 08:45:00,
2013-12-10 03:50:00,35.4,33.5,0.00,NNE,22,4.8,197.8,93,4.16,,,0.00,VWS V14.01,2013-12-10 08:50:00,
2013-12-10 03:55:00,35.5,33.7,0.00,North,11,0.0,197.8,93,4.16,,,0.00,VWS V14.01,2013-12-10 08:55:00,
2013-12-10 04:00:00,35.6,33.6,0.00,NNW,329,0.0,197.8,92,4.16,,,0.00,VWS V14.01,2013-12-10 09:00:00,
2013-12-10 04:06:00,35.5,33.7,0.00,WNW,290,2.8,197.8,93,4.16,,,0.00,VWS V14.01,2013-12-10 09:06:00,
2013-12-10 04:11:00,35.5,33.5,0.00,NW,326,7.3,197.8,92,4.16,,,0.00,VWS V14.01,2013-12-10 09:11:00,
2013-12-10 04:16:00,35.5,33.6,0.00,NW,319,4.8,197.8,93,4.16,,,0.00,VWS V14.01,2013-12-10 09:16:00,
2013-12-10 04:21:00,35.4,33.6,0.00,WNW,290,6.2,197.8,93,4.16,,,0.00,VWS V14.01,2013-12-10 09:21:00,
2013-12-10 04:26:00,35.2,33.1,0.00,West,276,8.1,197.8,92,4.16,,,0.00,VWS V14.01,2013-12-10 09:26:00,
2013-12-10 04:32:00,35.2,33.5,0.00,WSW,250,0.0,197.8,94,4.16,,,0.00,VWS V14.01,2013-12-10 09:32:00,
2013-12-10 04:37:00,35.2,33.2,0.00,WNW,288,0.0,197.8,92,4.16,,,0.00,VWS V14.01,2013-12-10 09:37:00,
2013-12-10 04:42:00,35.3,33.2,0.00,NW,326,4.5,197.8,92,4.16,,,0.00,VWS V14.01,2013-12-10 09:42:00,
2013-12-10 04:47:00,35.4,33.2,0.00,NW,309,4.9,197.8,92,4.16,,,0.00,VWS V14.01,2013-12-10 09:47:00,
2013-12-10 04:52:00,35.3,33.1,0.00,NNW,338,6.1,197.8,92,4.16,,,0.00,VWS V14.01,2013-12-10 09:52:00,
2013-12-10 04:58:00,35.4,33.1,0.00,WSW,242,0.0,197.8,91,4.16,,,0.00,VWS V14.01,2013-12-10 09:58:00,
2013-12-10 05:03:00,35.5,33.2,0.00,NNW,330,0.0,197.8,91,4.16,,,0.00,VWS V14.01,2013-12-10 10:03:00,
2013-12-10 05:08:00,35.4,33.1,0.00,WNW,283,3.3,197.8,91,4.16,,,0.00,VWS V14.01,2013-12-10 10:08:00,
2013-12-10 05:13:00,35.6,33.4,0.00,South,176,0.0,197.8,92,4.16,,,0.00,VWS V14.01,2013-12-10 10:13:00,
2013-12-10 05:18:00,35.7,33.4,0.00,South,176,0.0,197.8,91,4.16,,,0.00,VWS V14.01,2013-12-10 10:18:00,
2013-12-10 05:24:00,35.6,33.1,0.00,West,271,0.0,197.8,90,4.16,,,0.00,VWS V14.01,2013-12-10 10:24:00,
2013-12-10 05:29:00,35.6,33.3,0.00,NNW,335,0.0,197.8,91,4.16,,,0.00,VWS V14.01,2013-12-10 10:29:00,
2013-12-10 05:34:00,35.5,32.9,0.00,WSW,240,0.0,197.8,90,4.16,,,0.00,VWS V14.01,2013-12-10 10:34:00,
2013-12-10 05:39:00,35.5,32.7,0.00,West,262,4.8,197.8,90,4.16,,,0.00,VWS V14.01,2013-12-10 10:39:00,
2013-12-10 05:44:00,35.4,32.5,0.00,NNE,21,0.0,197.8,89,4.16,,,0.00,VWS V14.01,2013-12-10 10:44:00,
2013-12-10 05:50:00,35.3,32.5,0.00,NW,309,0.0,197.8,89,4.16,,,0.00,VWS V14.01,2013-12-10 10:50:00,
2013-12-10 05:55:00,35.4,32.5,0.00,NNW,335,0.0,197.8,89,4.16,,,0.00,VWS V14.01,2013-12-10 10:55:00,
2013-12-10 06:00:00,35.3,32.5,0.00,NNW,336,4.6,197.8,89,4.16,,,0.00,VWS V14.01,2013-12-10 11:00:00,
2013-12-10 06:05:00,35.3,32.6,0.00,NNW,336,0.0,197.8,90,4.16,,,0.00,VWS V14.01,2013-12-10 11:05:00,
2013-12-10 06:10:00,35.5,32.6,0.00,SSW,201,0.0,197.8,89,4.16,,,0.00,VWS V14.01,2013-12-10 11:10:00,
2013-12-10 06:15:00,35.5,32.8,0.00,West,266,0.0,197.8,90,4.16,,,0.00,VWS V14.01,2013-12-10 11:15:00,
2013-12-10 06:21:00,35.6,33.0,0.00,West,266,0.0,197.8,90,4.16,,,0.00,VWS V14.01,2013-12-10 11:21:00,
2013-12-10 06:26:00,35.5,32.6,0.00,South,191,0.0,197.8,89,4.16,,,0.00,VWS V14.01,2013-12-10 11:26:00,
2013-12-10 06:32:00,35.5,32.7,0.00,South,191,0.0,197.8,89,4.16,,,0.00,VWS V14.01,2013-12-10 11:32:00,
2013-12-10 06:37:00,35.6,32.8,0.00,South,191,0.0,197.8,90,4.16,,,0.00,VWS V14.01,2013-12-10 11:37:00,
2013-12-10 06:42:00,35.7,32.6,0.00,South,191,0.0,197.8,88,4.16,,,0.00,VWS V14.01,2013-12-10 11:42:00,
2013-12-10 06:47:00,35.7,32.7,0.00,West,280,4.5,197.8,89,4.16,,,0.00,VWS V14.01,2013-12-10 11:47:00,
2013-12-10 06:52:00,35.7,32.9,0.00,NW,311,0.0,197.8,89,4.16,,,0.00,VWS V14.01,2013-12-10 11:52:00,
2013-12-10 06:58:00,35.6,32.9,0.00,WNW,298,0.0,197.8,90,4.16,,,0.00,VWS V14.01,2013-12-10 11:58:00,
2013-12-10 07:03:00,35.6,33.0,0.00,WNW,298,0.0,197.8,90,4.16,,,0.00,VWS V14.01,2013-12-10 12:03:00,
2013-12-10 07:08:00,35.5,32.9,0.00,West,271,0.0,197.8,90,4.16,,,0.00,VWS V14.01,2013-12-10 12:08:00,
2013-12-10 07:13:00,35.4,32.8,0.00,NW,314,0.0,197.8,90,4.16,,,0.00,VWS V14.01,2013-12-10 12:13:00,
2013-12-10 07:19:00,35.5,32.8,0.00,NW,314,0.0,197.8,90,4.16,,,0.00,VWS V14.01,2013-12-10 12:19:00,
2013-12-10 07:24:00,35.5,33.0,0.00,NW,314,0.0,197.8,90,4.16,,,0.00,VWS V14.01,2013-12-10 12:24:00,
2013-12-10 07:29:00,35.4,33.2,0.00,NW,314,0.0,197.8,91,4.16,,,0.00,VWS V14.01,2013-12-10 12:29:00,
2013-12-10 07:34:00,35.4,33.1,0.00,NW,314,0.0,197.8,91,4.16,,,0.00,VWS V14.01,2013-12-10 12:34:00,
2013-12-10 07:39:00,35.4,33.0,0.00,NW,314,0.0,197.8,91,4.16,,,0.00,VWS V14.01,2013-12-10 12:39:00,
2013-12-10 07:45:00,35.4,33.1,0.00,NW,314,0.0,197.8,91,4.16,,,0.00,VWS V14.01,2013-12-10 12:45:00,
2013-12-10 07:50:00,35.5,33.1,0.00,NW,314,0.0,197.8,91,4.16,,,0.00,VWS V14.01,2013-12-10 12:50:00,
2013-12-10 07:55:00,35.6,33.2,0.00,NW,314,0.0,197.8,91,4.16,,,0.00,VWS V14.01,2013-12-10 12:55:00,
2013-12-10 08:00:00,35.6,33.5,0.00,NW,314,0.0,197.8,92,4.16,,,0.00,VWS V14.01,2013-12-10 13:00:00,
2013-12-10 08:05:00,35.5,33.5,0.00,NW,314,0.0,197.8,92,4.16,,,0.00,VWS V14.01,2013-12-10 13:05:00,
2013-12-10 08:10:00,35.3,33.6,0.00,NW,314,0.0,197.8,94,4.16,,,0.00,VWS V14.01,2013-12-10 13:10:00,
2013-12-10 08:16:00,35.0,33.5,0.00,NW,314,0.0,197.8,94,4.16,,,0.00,VWS V14.01,2013-12-10 13:16:00,
2013-12-10 08:21:00,34.9,33.3,0.00,NW,314,0.0,197.8,94,4.16,,,0.00,VWS V14.01,2013-12-10 13:21:00,
2013-12-10 08:26:00,35.0,33.5,0.00,NW,314,0.0,197.8,94,4.16,,,0.00,VWS V14.01,2013-12-10 13:26:00,
2013-12-10 08:31:00,35.2,33.8,0.00,NW,314,0.0,197.8,95,4.16,,,0.00,VWS V14.01,2013-12-10 13:31:00,
2013-12-10 08:37:00,35.4,34.0,0.00,NW,314,0.0,197.8,95,4.16,,,0.00,VWS V14.01,2013-12-10 13:37:00,
2013-12-10 08:43:00,35.7,34.2,0.00,NW,314,0.0,197.8,94,4.16,,,0.00,VWS V14.01,2013-12-10 13:43:00,
2013-12-10 08:48:00,35.6,33.8,0.00,SW,225,0.0,197.8,93,4.16,,,0.00,VWS V14.01,2013-12-10 13:48:00,
2013-12-10 08:54:00,35.4,33.8,0.00,SW,225,0.0,197.8,94,4.16,,,0.00,VWS V14.01,2013-12-10 13:54:00,
2013-12-10 08:59:00,35.1,33.4,0.00,SW,225,0.0,197.8,94,4.16,,,0.00,VWS V14.01,2013-12-10 13:59:00,
2013-12-10 09:05:00,35.0,33.5,0.00,SW,225,0.0,197.8,94,4.16,,,0.00,VWS V14.01,2013-12-10 14:05:00,
2013-12-10 09:10:00,35.0,33.5,0.00,SW,225,0.0,197.8,94,4.16,,,0.00,VWS V14.01,2013-12-10 14:10:00,
2013-12-10 09:16:00,35.0,33.7,0.00,SW,225,0.0,197.8,95,4.16,,,0.00,VWS V14.01,2013-12-10 14:16:00,
2013-12-10 09:21:00,34.9,33.6,0.00,SW,225,0.0,197.8,95,4.16,,,0.00,VWS V14.01,2013-12-10 14:21:00,
2013-12-10 09:26:00,35.0,33.8,0.00,SW,225,0.0,197.8,95,4.16,,,0.00,VWS V14.01,2013-12-10 14:26:00,
2013-12-10 09:32:00,34.9,33.8,0.00,SW,225,0.0,197.8,96,4.16,,,0.00,VWS V14.01,2013-12-10 14:32:00,
2013-12-10 09:37:00,34.8,33.8,0.00,SW,225,0.0,197.8,96,4.16,,,0.00,VWS V14.01,2013-12-10 14:37:00,
2013-12-10 09:43:00,34.8,33.9,0.00,SW,225,0.0,197.8,96,4.16,,,0.00,VWS V14.01,2013-12-10 14:43:00,
2013-12-10 09:48:00,34.7,33.8,0.00,SW,225,0.0,197.8,97,4.16,,,0.00,VWS V14.01,2013-12-10 14:48:00,
2013-12-10 09:54:00,34.7,33.8,0.00,SW,225,0.0,197.8,96,4.16,,,0.00,VWS V14.01,2013-12-10 14:54:00,
2013-12-10 09:59:00,34.6,33.7,0.00,SW,225,0.0,197.8,97,4.16,,,0.00,VWS V14.01,2013-12-10 14:59:00,
2013-12-10 10:05:00,34.6,33.7,0.00,SW,225,0.0,197.8,96,4.16,,,0.00,VWS V14.01,2013-12-10 15:05:00,
2013-12-10 10:10:00,34.9,34.0,0.00,SW,225,0.0,197.8,96,4.16,,,0.00,VWS V14.01,2013-12-10 15:10:00,
2013-12-10 10:16:00,35.3,34.3,0.00,SW,225,0.0,197.8,96,4.16,,,0.00,VWS V14.01,2013-12-10 15:16:00,
2013-12-10 10:21:00,35.7,34.6,0.00,SW,225,0.0,197.8,96,4.16,,,0.00,VWS V14.01,2013-12-10 15:21:00,
2013-12-10 10:27:00,35.9,34.6,0.00,SW,225,0.0,197.8,95,4.16,,,0.00,VWS V14.01,2013-12-10 15:27:00,
2013-12-10 10:33:00,35.9,34.6,0.00,SW,225,0.0,197.8,95,4.16,,,0.00,VWS V14.01,2013-12-10 15:33:00,
2013-12-10 10:38:00,36.2,34.8,0.00,SW,225,0.0,197.8,95,4.16,,,0.00,VWS V14.01,2013-12-10 15:38:00,
2013-12-10 10:44:00,36.2,34.8,0.00,SW,225,0.0,197.8,94,4.16,,,0.00,VWS V14.01,2013-12-10 15:44:00,
2013-12-10 10:49:00,36.2,34.7,0.00,SW,225,0.0,197.8,94,4.16,,,0.00,VWS V14.01,2013-12-10 15:49:00,
2013-12-10 10:54:00,36.1,34.6,0.00,SW,225,0.0,197.8,94,4.16,,,0.00,VWS V14.01,2013-12-10 15:54:00,
2013-12-10 11:00:00,36.2,34.8,0.00,SW,225,0.0,197.8,94,4.16,,,0.00,VWS V14.01,2013-12-10 16:00:00,
2013-12-10 11:05:00,36.0,34.4,0.00,SW,225,0.0,197.8,94,4.16,,,0.00,VWS V14.01,2013-12-10 16:05:00,
2013-12-10 11:10:00,35.8,34.4,0.00,SW,225,0.0,197.8,95,4.16,,,0.00,VWS V14.01,2013-12-10 16:10:00,
2013-12-10 11:16:00,35.5,34.1,0.00,SW,225,0.0,197.8,95,4.16,,,0.00,VWS V14.01,2013-12-10 16:16:00,
2013-12-10 11:21:00,35.0,33.9,0.00,SW,225,0.0,197.8,96,4.16,,,0.00,VWS V14.01,2013-12-10 16:21:00,
2013-12-10 11:27:00,35.0,33.8,0.00,SW,225,0.0,197.8,96,4.16,,,0.00,VWS V14.01,2013-12-10 16:27:00,
2013-12-10 11:32:00,35.0,33.8,0.00,SW,225,0.0,197.8,95,4.16,,,0.00,VWS V14.01,2013-12-10 16:32:00,
2013-12-10 11:38:00,34.8,33.5,0.00,SW,225,0.0,197.8,95,4.16,,,0.00,VWS V14.01,2013-12-10 16:38:00,
2013-12-10 11:43:00,34.8,33.7,0.00,SW,225,0.0,197.8,96,4.16,,,0.00,VWS V14.01,2013-12-10 16:43:00,
2013-12-10 11:48:00,34.8,33.5,0.00,SW,225,0.0,197.8,95,4.16,,,0.00,VWS V14.01,2013-12-10 16:48:00,
2013-12-10 11:55:00,34.7,33.4,0.00,SW,225,0.0,197.8,95,4.16,,,0.00,VWS V14.01,2013-12-10 16:55:00,
2013-12-10 12:00:00,34.3,33.0,0.00,SW,225,0.0,197.8,95,4.16,,,0.00,VWS V14.01,2013-12-10 17:00:00,
2013-12-10 12:06:00,34.2,33.1,0.00,SW,225,0.0,197.8,96,4.16,,,0.00,VWS V14.01,2013-12-10 17:06:00,
2013-12-10 12:11:00,34.2,33.1,0.00,SW,225,0.0,197.8,96,4.16,,,0.00,VWS V14.01,2013-12-10 17:11:00,
2013-12-10 12:16:00,34.3,33.4,0.00,SW,225,0.0,197.8,97,4.16,,,0.00,VWS V14.01,2013-12-10 17:16:00,
2013-12-10 12:22:00,34.4,33.4,0.00,SW,225,0.0,197.8,96,4.16,,,0.00,VWS V14.01,2013-12-10 17:22:00,
2013-12-10 12:28:00,34.6,33.5,0.00,SW,225,0.0,197.8,96,4.16,,,0.00,VWS V14.01,2013-12-10 17:28:00,
2013-12-10 12:34:00,34.4,33.1,0.00,SW,225,0.0,197.8,95,4.16,,,0.00,VWS V14.01,2013-12-10 17:34:00,
2013-12-10 12:39:00,34.6,33.3,0.00,SW,225,0.0,197.8,95,4.16,,,0.00,VWS V14.01,2013-12-10 17:39:00,
2013-12-10 12:44:00,34.0,32.4,0.00,WNW,287,0.0,197.8,94,4.16,,,0.00,VWS V14.01,2013-12-10 17:44:00,
2013-12-10 12:49:00,33.7,32.3,0.00,West,267,3.4,197.8,94,4.16,,,0.00,VWS V14.01,2013-12-10 17:49:00,
2013-12-10 12:55:00,33.3,31.5,0.00,NNW,345,0.0,197.8,93,4.16,,,0.00,VWS V14.01,2013-12-10 17:55:00,
2013-12-10 13:00:00,33.0,31.4,0.00,NNW,339,0.0,197.8,94,4.16,,,0.00,VWS V14.01,2013-12-10 18:00:00,
2013-12-10 13:05:00,32.9,31.4,0.00,NNW,339,0.0,197.8,94,4.16,,,0.00,VWS V14.01,2013-12-10 18:05:00,
2013-12-10 13:10:00,33.3,31.5,0.00,NNW,339,0.0,197.8,93,4.16,,,0.00,VWS V14.01,2013-12-10 18:10:00,
2013-12-10 13:15:00,33.1,31.4,0.00,NNW,339,0.0,197.8,93,4.16,,,0.00,VWS V14.01,2013-12-10 18:15:00,
2013-12-10 13:21:00,33.3,32.3,0.00,NNW,339,0.0,197.8,96,4.16,,,0.00,VWS V14.01,2013-12-10 18:21:00,
2013-12-10 13:26:00,33.1,31.8,0.00,NNW,339,0.0,197.8,95,4.16,,,0.00,VWS V14.01,2013-12-10 18:26:00,
2013-12-10 13:31:00,32.6,31.1,0.00,West,263,5.0,197.8,94,4.16,,,0.00,VWS V14.01,2013-12-10 18:31:00,
2013-12-10 13:36:00,32.7,31.4,0.00,West,281,0.0,197.8,95,4.16,,,0.00,VWS V14.01,2013-12-10 18:36:00,
2013-12-10 13:41:00,32.0,30.9,0.00,West,276,3.5,197.8,96,4.16,,,0.00,VWS V14.01,2013-12-10 18:41:00,
2013-12-10 13:47:00,31.7,30.9,0.00,WNW,287,9.9,197.8,97,4.16,,,0.00,VWS V14.01,2013-12-10 18:47:00,
2013-12-10 13:52:00,30.9,30.0,0.00,WNW,292,5.7,197.8,96,4.16,,,0.00,VWS V14.01,2013-12-10 18:52:00,
2013-12-10 13:57:00,31.0,30.4,0.00,West,274,0.0,197.8,98,4.16,,,0.00,VWS V14.01,2013-12-10 18:57:00,
2013-12-10 14:02:00,30.7,30.2,0.00,NW,318,0.0,197.8,98,4.16,,,0.00,VWS V14.01,2013-12-10 19:02:00,
2013-12-10 14:07:00,30.9,30.4,0.00,WNW,290,0.0,197.8,98,4.16,,,0.00,VWS V14.01,2013-12-10 19:07:00,
2013-12-10 14:13:00,31.1,30.5,0.00,WNW,283,0.0,197.8,98,4.16,,,0.00,VWS V14.01,2013-12-10 19:13:00,
2013-12-10 14:18:00,31.0,30.2,0.00,NW,307,0.0,197.8,97,4.16,,,0.00,VWS V14.01,2013-12-10 19:18:00,
2013-12-10 14:23:00,31.2,30.5,0.00,West,262,0.0,197.8,97,4.16,,,0.00,VWS V14.01,2013-12-10 19:23:00,
2013-12-10 14:28:00,31.6,30.8,0.00,West,262,0.0,197.8,97,4.16,,,0.00,VWS V14.01,2013-12-10 19:28:00,
2013-12-10 14:33:00,31.9,30.9,0.00,West,262,0.0,197.8,96,4.16,,,0.00,VWS V14.01,2013-12-10 19:33:00,
2013-12-10 14:38:00,31.7,30.6,0.00,West,262,0.0,197.8,96,4.16,,,0.00,VWS V14.01,2013-12-10 19:38:00,
2013-12-10 14:44:00,31.6,30.2,0.00,West,262,0.0,197.8,94,4.16,,,0.00,VWS V14.01,2013-12-10 19:44:00,
2013-12-10 14:49:00,31.4,29.9,0.00,West,263,3.5,197.8,94,4.16,,,0.00,VWS V14.01,2013-12-10 19:49:00,
2013-12-10 14:54:00,31.1,29.4,0.00,West,277,6.3,197.8,93,4.16,,,0.00,VWS V14.01,2013-12-10 19:54:00,
2013-12-10 14:59:00,31.4,29.9,0.00,West,273,0.0,197.8,94,4.16,,,0.00,VWS V14.01,2013-12-10 19:59:00,
2013-12-10 15:04:00,31.6,29.7,0.00,NW,314,0.0,197.8,93,4.16,,,0.00,VWS V14.01,2013-12-10 20:04:00,
2013-12-10 15:10:00,31.2,29.4,0.00,NW,318,0.0,197.8,93,4.16,,,0.00,VWS V14.01,2013-12-10 20:10:00,
2013-12-10 15:15:00,31.3,29.5,0.00,WNW,292,0.0,197.8,93,4.16,,,0.00,VWS V14.01,2013-12-10 20:15:00,
2013-12-10 15:20:00,31.0,28.7,0.00,WNW,294,0.0,197.8,91,4.16,,,0.00,VWS V14.01,2013-12-10 20:20:00,
2013-12-10 15:25:00,30.9,28.6,0.00,West,267,6.0,197.8,91,4.16,,,0.00,VWS V14.01,2013-12-10 20:25:00,
2013-12-10 15:30:00,30.8,28.4,0.00,West,274,0.0,197.8,90,4.16,,,0.00,VWS V14.01,2013-12-10 20:30:00,
2013-12-10 15:35:00,30.7,28.5,0.00,WSW,242,6.5,197.8,91,4.16,,,0.00,VWS V14.01,2013-12-10 20:35:00,
2013-12-10 15:41:00,30.8,28.6,0.00,NNW,332,0.0,197.8,91,4.16,,,0.00,VWS V14.01,2013-12-10 20:41:00,
2013-12-10 15:46:00,31.0,28.8,0.00,WSW,249,6.2,197.8,91,4.16,,,0.00,VWS V14.01,2013-12-10 20:46:00,
2013-12-10 15:51:00,31.0,28.5,0.00,NW,322,5.2,197.8,90,4.16,,,0.00,VWS V14.01,2013-12-10 20:51:00,
2013-12-10 15:56:00,30.8,28.2,0.00,WNW,297,5.1,197.8,90,4.16,,,0.00,VWS V14.01,2013-12-10 20:56:00,
2013-12-10 16:01:00,31.1,28.6,0.00,SW,232,0.0,197.8,90,4.16,,,0.00,VWS V14.01,2013-12-10 21:01:00,
2013-12-10 16:07:00,30.7,28.2,0.00,WNW,302,0.0,197.8,90,4.16,,,0.00,VWS V14.01,2013-12-10 21:07:00,
2013-12-10 16:12:00,30.6,28.3,0.00,West,267,0.0,197.8,91,4.16,,,0.00,VWS V14.01,2013-12-10 21:12:00,
2013-12-10 16:17:00,30.6,28.2,0.00,West,267,0.0,197.8,91,4.16,,,0.00,VWS V14.01,2013-12-10 21:17:00,
2013-12-10 16:22:00,30.3,28.0,0.00,WSW,250,4.2,197.8,91,4.16,,,0.00,VWS V14.01,2013-12-10 21:22:00,
2013-12-10 16:28:00,30.4,28.2,0.00,West,266,0.0,197.8,91,4.16,,,0.00,VWS V14.01,2013-12-10 21:28:00,
2013-12-10 16:33:00,30.3,28.2,0.00,WNW,292,4.3,197.8,92,4.16,,,0.00,VWS V14.01,2013-12-10 21:33:00,
2013-12-10 16:38:00,29.9,27.9,0.00,WSW,256,4.4,197.8,92,4.16,,,0.00,VWS V14.01,2013-12-10 21:38:00,
2013-12-10 16:43:00,29.9,28.1,0.00,WSW,252,6.0,197.8,93,4.16,,,0.00,VWS V14.01,2013-12-10 21:43:00,
2013-12-10 16:48:00,30.0,28.2,0.00,North,359,0.0,197.8,93,4.16,,,0.00,VWS V14.01,2013-12-10 21:48:00,
2013-12-10 16:53:00,29.8,28.0,0.00,WSW,240,0.0,197.8,93,4.16,,,0.00,VWS V14.01,2013-12-10 21:53:00,
2013-12-10 16:59:00,29.5,27.6,0.00,WSW,240,0.0,197.8,93,4.16,,,0.00,VWS V14.01,2013-12-10 21:59:00,
2013-12-10 17:04:00,29.5,27.5,0.00,WNW,283,0.0,197.8,92,4.16,,,0.00,VWS V14.01,2013-12-10 22:04:00,
2013-12-10 17:09:00,29.4,27.5,0.00,NW,304,9.9,197.8,92,4.16,,,0.00,VWS V14.01,2013-12-10 22:09:00,
2013-12-10 17:15:00,29.7,27.7,0.00,WSW,255,3.3,197.8,92,4.16,,,0.00,VWS V14.01,2013-12-10 22:15:00,
2013-12-10 17:20:00,29.8,28.0,0.00,NW,315,0.0,197.8,93,4.16,,,0.00,VWS V14.01,2013-12-10 22:20:00,
2013-12-10 17:25:00,29.4,27.3,0.00,West,260,8.2,197.8,92,4.16,,,0.00,VWS V14.01,2013-12-10 22:25:00,
2013-12-10 17:30:00,29.0,26.4,0.00,WNW,288,4.7,197.8,90,4.16,,,0.00,VWS V14.01,2013-12-10 22:30:00,
2013-12-10 17:35:00,29.2,26.7,0.00,West,277,0.0,197.8,90,4.16,,,0.00,VWS V14.01,2013-12-10 22:35:00,
2013-12-10 17:40:00,28.7,26.5,0.00,West,278,0.0,197.8,92,4.16,,,0.00,VWS V14.01,2013-12-10 22:40:00,
2013-12-10 17:46:00,28.8,26.0,0.00,WNW,292,6.4,197.8,89,4.16,,,0.00,VWS V14.01,2013-12-10 22:46:00,
2013-12-10 17:51:00,28.3,25.1,0.00,WNW,288,4.3,197.8,88,4.16,,,0.00,VWS V14.01,2013-12-10 22:51:00,
2013-12-10 17:56:00,28.3,24.9,0.00,West,264,3.4,197.8,87,4.16,,,0.00,VWS V14.01,2013-12-10 22:56:00,
2013-12-10 18:01:00,28.6,24.7,0.00,WNW,294,7.5,197.8,85,4.16,,,0.00,VWS V14.01,2013-12-10 23:01:00,
2013-12-10 18:06:00,28.4,25.2,0.00,West,269,5.0,197.8,88,4.16,,,0.00,VWS V14.01,2013-12-10 23:06:00,
2013-12-10 18:12:00,28.2,24.7,0.00,WNW,294,6.1,197.8,87,4.16,,,0.00,VWS V14.01,2013-12-10 23:12:00,
2013-12-10 18:17:00,28.6,25.0,0.00,WSW,253,6.8,197.8,86,4.16,,,0.00,VWS V14.01,2013-12-10 23:17:00,
2013-12-10 18:22:00,28.2,24.7,0.00,West,271,0.0,197.8,86,4.16,,,0.00,VWS V14.01,2013-12-10 23:22:00,
2013-12-10 18:27:00,28.1,24.3,0.00,NW,318,3.0,197.8,85,4.16,,,0.00,VWS V14.01,2013-12-10 23:27:00,
2013-12-10 18:32:00,28.0,24.1,0.00,NW,309,0.0,197.8,85,4.16,,,0.00,VWS V14.01,2013-12-10 23:32:00,
2013-12-10 18:38:00,28.1,23.6,0.00,West,276,11.6,197.8,83,4.16,,,0.00,VWS V14.01,2013-12-10 23:38:00,
2013-12-10 18:43:00,28.4,24.1,0.00,NNW,347,6.3,197.8,84,4.16,,,0.00,VWS V14.01,2013-12-10 23:43:00,
2013-12-10 18:48:00,27.9,23.8,0.00,WNW,285,0.0,197.8,84,4.16,,,0.00,VWS V14.01,2013-12-10 23:48:00,
2013-12-10 18:53:00,27.7,23.0,0.00,West,263,3.2,197.8,82,4.16,,,0.00,VWS V14.01,2013-12-10 23:53:00,
2013-12-10 18:58:00,28.1,24.3,0.00,West,273,0.0,197.8,85,4.16,,,0.00,VWS V14.01,2013-12-10 23:58:00,
2013-12-10 19:04:00,27.9,22.9,0.00,West,278,0.0,197.8,81,4.16,,,0.00,VWS V14.01,2013-12-11 00:04:00,
2013-12-10 19:09:00,28.1,22.9,0.00,North,359,0.0,197.8,80,4.16,,,0.00,VWS V14.01,2013-12-11 00:09:00,
2013-12-10 19:14:00,28.0,23.0,0.00,WSW,248,6.7,197.8,81,4.16,,,0.00,VWS V14.01,2013-12-11 00:14:00,
2013-12-10 19:19:00,27.9,23.3,0.00,WSW,242,0.0,197.8,83,4.16,,,0.00,VWS V14.01,2013-12-11 00:19:00,
2013-12-10 19:24:00,27.8,23.4,0.00,West,277,2.9,197.8,83,4.16,,,0.00,VWS V14.01,2013-12-11 00:24:00,
2013-12-10 19:30:00,27.6,23.9,0.00,West,260,0.0,197.8,86,4.16,,,0.00,VWS V14.01,2013-12-11 00:30:00,
2013-12-10 19:36:00,27.7,24.3,0.00,WNW,298,4.7,197.8,87,4.16,,,0.00,VWS V14.01,2013-12-11 00:36:00,
2013-12-10 19:41:00,27.5,23.9,0.00,NW,318,0.0,197.8,86,4.16,,,0.00,VWS V14.01,2013-12-11 00:41:00,
2013-12-10 19:46:00,27.9,24.2,0.00,WSW,257,0.0,197.8,86,4.16,,,0.00,VWS V14.01,2013-12-11 00:46:00,
2013-12-10 19:52:00,27.4,23.8,0.00,West,281,0.0,197.8,86,4.16,,,0.00,VWS V14.01,2013-12-11 00:52:00,
2013-12-10 19:57:00,27.6,24.1,0.00,WNW,295,0.0,197.8,86,4.16,,,0.00,VWS V14.01,2013-12-11 00:57:00,
2013-12-10 20:02:00,27.7,23.7,0.00,SW,231,2.1,197.8,85,4.16,,,0.00,VWS V14.01,2013-12-11 01:02:00,
2013-12-10 20:07:00,27.3,23.6,0.00,WSW,249,0.0,197.8,86,4.16,,,0.00,VWS V14.01,2013-12-11 01:07:00,
2013-12-10 20:13:00,27.3,23.5,0.00,WSW,249,0.0,197.8,85,4.16,,,0.00,VWS V14.01,2013-12-11 01:13:00,
2013-12-10 20:18:00,27.5,23.7,0.00,West,276,5.3,197.8,85,4.16,,,0.00,VWS V14.01,2013-12-11 01:18:00,
2013-12-10 20:23:00,27.4,24.1,0.00,SW,224,0.0,197.8,87,4.16,,,0.00,VWS V14.01,2013-12-11 01:23:00,
2013-12-10 20:28:00,27.0,24.0,0.00,WNW,288,0.0,197.8,88,4.16,,,0.00,VWS V14.01,2013-12-11 01:28:00,
2013-12-10 20:34:00,27.4,24.7,0.00,WNW,283,5.8,197.8,90,4.16,,,0.00,VWS V14.01,2013-12-11 01:34:00,
2013-12-10 20:39:00,27.3,24.9,0.00,WSW,248,0.0,197.8,90,4.16,,,0.00,VWS V14.01,2013-12-11 01:39:00,
2013-12-10 20:44:00,27.1,24.7,0.00,WNW,283,5.3,197.8,91,4.16,,,0.00,VWS V14.01,2013-12-11 01:44:00,
2013-12-10 20:49:00,27.0,24.6,0.00,WSW,252,5.8,197.8,90,4.16,,,0.00,VWS V14.01,2013-12-11 01:49:00,
2013-12-10 20:55:00,26.8,24.6,0.00,WNW,302,4.2,197.8,91,4.16,,,0.00,VWS V14.01,2013-12-11 01:55:00,
2013-12-10 21:00:00,27.0,24.7,0.00,WSW,240,4.7,197.8,91,4.16,,,0.00,VWS V14.01,2013-12-11 02:00:00,
2013-12-10 21:05:00,26.9,24.6,0.00,WNW,302,0.0,197.8,91,4.16,,,0.00,VWS V14.01,2013-12-11 02:05:00,
2013-12-10 21:10:00,26.8,24.4,0.00,West,281,3.3,197.8,91,4.16,,,0.00,VWS V14.01,2013-12-11 02:10:00,
2013-12-10 21:16:00,26.8,24.6,0.00,WNW,284,0.0,197.8,91,4.16,,,0.00,VWS V14.01,2013-12-11 02:16:00,
2013-12-10 21:21:00,26.7,24.0,0.00,West,276,4.2,197.8,90,4.16,,,0.00,VWS V14.01,2013-12-11 02:21:00,
2013-12-10 21:27:00,26.7,24.1,0.00,WNW,287,3.4,197.8,90,4.16,,,0.00,VWS V14.01,2013-12-11 02:27:00,
2013-12-10 21:33:00,26.5,24.0,0.00,NW,308,0.0,197.8,90,4.16,,,0.00,VWS V14.01,2013-12-11 02:33:00,
2013-12-10 21:38:00,26.4,23.7,0.00,SW,222,3.4,197.8,89,4.16,,,0.00,VWS V14.01,2013-12-11 02:38:00,
2013-12-10 21:44:00,26.7,24.2,0.00,West,266,0.0,197.8,90,4.16,,,0.00,VWS V14.01,2013-12-11 02:44:00,
2013-12-10 21:49:00,26.5,23.4,0.00,West,266,0.0,197.8,88,4.16,,,0.00,VWS V14.01,2013-12-11 02:49:00,
2013-12-10 21:55:00,26.6,23.4,0.00,West,266,0.0,197.8,88,4.16,,,0.00,VWS V14.01,2013-12-11 02:55:00,
2013-12-10 22:00:00,26.3,22.8,0.00,West,266,0.0,197.8,86,4.16,,,0.00,VWS V14.01,2013-12-11 03:00:00,
2013-12-10 22:06:00,26.4,22.9,0.00,NW,322,0.0,197.8,86,4.16,,,0.00,VWS V14.01,2013-12-11 03:06:00,
2013-12-10 22:11:00,26.5,23.0,0.00,WNW,295,8.4,197.8,86,4.16,,,0.00,VWS V14.01,2013-12-11 03:11:00,
2013-12-10 22:16:00,26.5,22.7,0.00,West,262,0.0,197.8,85,4.16,,,0.00,VWS V14.01,2013-12-11 03:16:00,
2013-12-10 22:22:00,26.3,22.6,0.00,West,262,0.0,197.8,86,4.16,,,0.00,VWS V14.01,2013-12-11 03:22:00,
2013-12-10 22:27:00,26.4,22.5,0.00,West,259,5.5,197.8,85,4.16,,,0.00,VWS V14.01,2013-12-11 03:27:00,
2013-12-10 22:33:00,26.5,22.2,0.00,SW,219,4.7,197.8,84,4.16,,,0.00,VWS V14.01,2013-12-11 03:33:00,
2013-12-10 22:38:00,26.4,22.3,0.00,West,266,0.0,197.8,84,4.16,,,0.00,VWS V14.01,2013-12-11 03:38:00,
2013-12-10 22:43:00,26.5,22.2,0.00,SW,236,0.0,197.8,84,4.16,,,0.00,VWS V14.01,2013-12-11 03:43:00,
2013-12-10 22:49:00,26.4,21.6,0.00,WSW,238,0.0,197.8,82,4.16,,,0.00,VWS V14.01,2013-12-11 03:49:00,
2013-12-10 22:54:00,26.2,21.3,0.00,West,266,0.0,197.8,81,4.16,,,0.00,VWS V14.01,2013-12-11 03:54:00,
2013-12-10 22:59:00,26.1,21.5,0.00,West,281,0.0,197.8,83,4.16,,,0.00,VWS V14.01,2013-12-11 03:59:00,
2013-12-10 23:05:00,26.2,21.5,0.00,West,281,0.0,197.8,82,4.16,,,0.00,VWS V14.01,2013-12-11 04:05:00,
2013-12-10 23:10:00,26.2,21.1,0.00,SW,229,0.0,197.8,81,4.16,,,0.00,VWS V14.01,2013-12-11 04:10:00,
2013-12-10 23:16:00,26.1,20.5,0.00,WSW,249,0.0,197.8,79,4.16,,,0.00,VWS V14.01,2013-12-11 04:16:00,
2013-12-10 23:21:00,26.0,19.9,0.00,WSW,243,0.0,197.8,77,4.16,,,0.00,VWS V14.01,2013-12-11 04:21:00,
2013-12-10 23:27:00,26.0,20.5,0.00,WSW,249,0.0,197.8,79,4.16,,,0.00,VWS V14.01,2013-12-11 04:27:00,
2013-12-10 23:32:00,26.1,20.0,0.00,SW,229,0.0,197.8,77,4.16,,,0.00,VWS V14.01,2013-12-11 04:32:00,
2013-12-10 23:37:00,26.0,18.8,0.00,West,264,3.1,197.8,74,4.16,,,0.00,VWS V14.01,2013-12-11 04:37:00,
2013-12-10 23:43:00,25.9,19.0,0.00,WSW,255,0.0,197.8,75,4.16,,,0.00,VWS V14.01,2013-12-11 04:43:00,
2013-12-10 23:48:00,26.0,19.1,0.00,West,259,0.0,197.8,75,4.16,,,0.00,VWS V14.01,2013-12-11 04:48:00,
2013-12-10 23:54:00,25.9,18.7,0.00,West,281,0.0,197.8,74,4.16,,,0.00,VWS V14.01,2013-12-11 04:54:00,
2013-12-10 23:59:00,25.9,17.8,0.00,WNW,287,0.0,197.8,71,4.16,,,0.00,VWS V14.01,2013-12-11 04:59:00,